WC0AA Weather Reports


time (UTC)temp
C
wind
direction
speed
KPH
gust
KPH
rain 1hr
cm
rain 24hr
cm
rain mn
cm
humidity
%
barometer
mb
20260505112004 9 12 0.0 0.0 0.00 0.00 0.00 65 1009.8
20260505111004 9 32 1.6 16.1 0.00 0.00 0.00 66 1009.8
20260505102004 11 70 17.7 27.4 0.00 0.00 0.00 56 1009.9
20260505101004 11 14 11.3 27.4 0.00 0.00 0.00 56 1009.9
20260505100004 11 0 16.1 20.9 0.00 0.00 0.00 55 1009.8
20260505095004 11 30 0.0 12.9 0.00 0.00 0.00 55 1009.8
20260505094005 11 12 0.0 24.1 0.00 0.00 0.00 55 1009.9
20260505093004 11 30 16.1 24.1 0.00 0.00 0.00 54 1010.0
20260505092004 11 22 16.1 19.3 0.00 0.00 0.00 54 1010.0
20260505091004 11 9 16.1 24.1 0.00 0.00 0.00 53 1010.0
20260505090004 11 2 17.7 24.1 0.00 0.00 0.00 52 1009.8
20260505085004 11 14 19.3 22.5 0.00 0.00 0.00 52 1010.0
20260505084004 11 31 1.6 12.9 0.00 0.00 0.00 51 1009.9
20260505083004 11 15 0.0 12.9 0.00 0.00 0.00 51 1009.9
20260505081004 11 22 16.1 32.2 0.00 0.00 0.00 50 1009.6
20260505080004 11 31 16.1 27.4 0.00 0.00 0.00 50 1009.4
20260505075006 11 40 20.9 33.8 0.00 0.00 0.00 49 1009.4
20260505073004 12 356 35.4 35.4 0.00 0.00 0.00 48 1009.8
20260505072004 12 3 22.5 35.4 0.00 0.00 0.00 48 1009.6
20260505071004 12 22 38.6 41.8 0.00 0.00 0.00 47 1009.5
20260505070004 12 36 33.8 37.0 0.00 0.00 0.00 45 1009.4
20260505064004 13 9 22.5 37.0 0.00 0.00 0.00 46 1008.7
20260505063004 13 25 29.0 41.8 0.00 0.00 0.00 45 1008.5
20260505062004 13 16 35.4 37.0 0.00 0.00 0.00 46 1008.2
20260505061004 13 10 30.6 41.8 0.00 0.00 0.00 47 1008.2
20260505060004 13 313 33.8 32.2 0.00 0.00 0.00 47 1008.6
20260505054003 13 355 20.9 33.8 0.00 0.00 0.00 47 1008.7
20260505053004 13 10 29.0 37.0 0.00 0.00 0.00 46 1008.0
20260505041004 16 338 38.6 46.7 0.00 0.00 0.00 41 1007.3
20260505040005 16 343 37.0 45.1 0.00 0.00 0.00 41 1007.1
20260505035005 16 9 33.8 45.1 0.00 0.00 0.00 41 1006.8
20260505034004 17 355 37.0 41.8 0.00 0.00 0.00 41 1006.6
20260505033004 17 331 33.8 38.6 0.00 0.00 0.00 41 1006.5
20260505031005 18 16 27.4 33.8 0.00 0.00 0.00 39 1006.1
20260505030004 18 21 29.0 35.4 0.00 0.00 0.00 38 1005.9
20260505024004 19 49 33.8 45.1 0.00 0.00 0.00 37 1005.4
20260505021004 20 6 25.7 29.0 0.00 0.00 0.00 37 1004.5
20260505015004 21 25 32.2 40.2 0.00 0.00 0.00 36 1003.8
20260505014004 21 15 32.2 48.3 0.00 0.00 0.00 35 1003.6
20260505013004 22 282 32.2 35.4 0.00 0.00 0.00 35 1003.2
20260505011004 23 328 33.8 40.2 0.00 0.00 0.00 35 1002.6
20260505010004 23 34 33.8 41.8 0.00 0.00 0.00 35 1002.5
20260505004004 24 357 22.5 35.4 0.00 0.00 0.00 35 1002.3
20260505003004 25 9 24.1 32.2 0.00 0.00 0.00 36 1002.3
20260505000004 26 333 27.4 32.2 0.00 0.00 0.00 34 1001.9
20260504235004 27 63 25.7 29.0 0.00 0.00 0.00 32 1001.9
20260504234004 28 6 0.0 0.0 0.00 0.00 0.00 26 1001.7
20260504233004 28 35 0.0 0.0 0.00 0.00 0.00 26 1001.7
20260504232004 28 0 0.0 8.0 0.00 0.00 0.00 26 1001.6
20260504230005 28 213 0.0 0.0 0.00 0.00 0.00 23 1001.6
20260504225004 30 253 0.0 0.0 0.00 0.00 0.00 22 1001.4
20260504224004 30 335 0.0 8.0 0.00 0.00 0.00 23 1001.3
20260504223004 29 307 0.0 0.0 0.00 0.00 0.00 22 1001.4
20260504222004 30 116 3.2 16.1 0.00 0.00 0.00 22 1001.2
20260504220004 31 221 0.0 14.5 0.00 0.00 0.00 22 1001.3
20260504215004 31 1 8.0 12.9 0.00 0.00 0.00 21 1001.4
20260504213005 31 321 3.2 11.3 0.00 0.00 0.00 21 1001.5
20260504211004 32 255 3.2 8.0 0.00 0.00 0.00 19 1001.7
20260504210004 31 205 1.6 14.5 0.00 0.00 0.00 21 1001.9
20260504205004 32 232 6.4 11.3 0.00 0.00 0.00 19 1001.9
20260504204004 32 342 1.6 11.3 0.00 0.00 0.00 20 1002.1
20260504203004 32 292 14.5 20.9 0.00 0.00 0.00 20 1002.1
20260504202004 31 22 0.0 11.3 0.00 0.00 0.00 20 1002.3
20260504200004 32 272 11.3 16.1 0.00 0.00 0.00 21 1002.3
20260504195004 32 359 14.5 27.4 0.00 0.00 0.00 20 1002.4
20260504194004 32 309 4.8 16.1 0.00 0.00 0.00 20 1002.4
20260504192003 32 325 9.7 14.5 0.00 0.00 0.00 22 1002.5
20260504191004 32 307 1.6 14.5 0.00 0.00 0.00 23 1002.5
20260504190004 32 266 11.3 14.5 0.00 0.00 0.00 24 1002.4
20260504185004 31 83 14.5 20.9 0.00 0.00 0.00 23 1002.5
20260504183005 32 285 8.0 14.5 0.00 0.00 0.00 22 1002.3
20260504181004 31 307 0.0 12.9 0.00 0.00 0.00 24 1002.4
20260504180004 31 261 3.2 12.9 0.00 0.00 0.00 26 1002.5
20260504175004 31 347 8.0 12.9 0.00 0.00 0.00 26 1002.6
20260504174004 31 279 9.7 14.5 0.00 0.00 0.00 28 1002.6
20260504173004 31 337 0.0 14.5 0.00 0.00 0.00 27 1002.7
20260504172004 31 270 3.2 16.1 0.00 0.00 0.00 27 1002.7
20260504171004 30 234 12.9 20.9 0.00 0.00 0.00 28 1002.7
20260504151004 23 242 0.0 9.7 0.00 0.00 0.00 46 1003.0